Volver al catálogo

YAOGAN-33 03

ActivoMilitarSSO
NORAD 57797·PAYLOAD·🇨🇳 China

Lanzado Sep 6, 2023 desde Jiuquan Satellite Launch Center

Loading…

Próximos Pases (próximas 24 horas)

TLE

ActualizadoSource: Space-Track

Época: Sep 14, 2026, 15:18 UTC

1 57797U 23136A   26257.63801865  .00000289  00000-0  71715-4 0  9993
2 57797  98.1923 180.7392 0006405 270.8308  89.2158 14.58789051160976

Sigue YAOGAN-33 03 en tiempo real con AllMySat

Download on the App Store